Volver al catálogo

THORAD AGENA D DEB

ActivoPO
NORAD 4935·DEBRIS·🇺🇸 United States

Lanzado Apr 8, 1970 desde Vandenberg Space Force Base

Loading…

Próximos Pases

TLE

Source: Space-Track
1 04935U 70025GB  26218.85006170  .00000453  00000-0  41987-3 0  9995
2 04935  99.8608 349.4924 0062816 234.7418 277.8807 13.87362130824063

Sigue THORAD AGENA D DEB en tiempo real con AllMySat

Download on the App Store